Change the Weather History Date:

Monday, September 2, 2013

  Actual Average Record
Temperature  
Mean Temperature 52 °F -  
Max Temperature 55 °F 59 °F 68 °F (1968)
Min Temperature 48 °F 40 °F 30 °F (1955)
Degree Days  
Heating Degree Days 14    
Growing Degree Days 2 (Base 50)    
Moisture  
Dew Point 51 °F    
Average Humidity 99    
Maximum Humidity 100    
Minimum Humidity 90    
Precipitation  
Precipitation 0.39 in - - ()
Sea Level Pressure  
Sea Level Pressure 29.65 in    
Wind  
Wind Speed 3 mph (North)    
Max Wind Speed 13 mph    
Max Gust Speed -    
Visibility 8 miles    
Events Rain    
Averages and records for this station are not official NWS values.
T = Trace of Precipitation, MM = Missing Value Source: NWS Daily Summary

Daily Weather History Graph

Daily Weather History Graph

Search for Another Location

Airport or City:

Trip Planner

Search our weather history database for the weather conditions in past years. The results will help you decide how hot, cold, wet, or windy it might be!

Date:

Astronomy

Sep. 02, 2013 Rise Set
Actual Time 7:01 AM AKDT 9:05 PM AKDT
Civil Twilight 6:16 AM AKDT 9:50 PM AKDT
Nautical Twilight 5:16 AM AKDT 10:49 PM AKDT
Astronomical Twilight 3:59 AM AKDT 12:04 AM AKDT
Moon 4:02 AM AKDT (9/2) 7:40 PM AKDT (9/2)
Length of Visible Light 15h 34m
Length of Day
14h 03m
Waning Crescent, 7% of the Moon is Illuminated
Sep 2
Waning Crescent
Sep 5
New
Sep 12
First Quarter
Sep 19
Full
Sep 26
Last Quarter

Hourly Weather History & Observations

Time (AKDT) Temp. Dew Point Humidity Pressure Visibility Wind Dir Wind Speed Gust Speed Precip Events Conditions
12:25 AM 51.8 °F 51.8 °F 100% 29.72 in 10.0 mi Calm Calm - N/A   Overcast
12:53 AM 51.1 °F 51.1 °F 100% 29.72 in 10.0 mi Calm Calm - N/A   Overcast
1:15 AM 51.8 °F 51.8 °F 100% 29.72 in 7.0 mi Calm Calm - 0.00 in Rain Light Rain
1:42 AM 51.8 °F 51.8 °F 100% 29.71 in 6.0 mi Calm Calm - 0.02 in Rain Light Rain
1:53 AM 50.0 °F 50.0 °F 100% 29.73 in 4.0 mi Calm Calm - 0.02 in Rain Light Rain
2:22 AM 50.0 °F 50.0 °F 100% 29.72 in 3.0 mi East 3.5 mph - 0.01 in Rain Light Rain
2:33 AM 50.0 °F 50.0 °F 100% 29.72 in 2.5 mi Calm Calm - 0.02 in Rain Light Rain
2:44 AM 50.0 °F 50.0 °F 100% 29.71 in 3.0 mi Calm Calm - 0.02 in Rain Light Rain
2:53 AM 50.0 °F 50.0 °F 100% 29.72 in 4.0 mi Calm Calm - 0.03 in Rain Light Rain
3:53 AM 50.0 °F 50.0 °F 100% 29.70 in 3.0 mi Calm Calm - 0.02 in Rain Light Rain
4:53 AM 50.0 °F 50.0 °F 100% 29.70 in 5.0 mi NNE 3.5 mph - 0.01 in Rain Light Rain
5:12 AM 50.0 °F 50.0 °F 100% 29.69 in 4.0 mi Calm Calm - 0.01 in Rain Light Rain
5:25 AM 50.0 °F 50.0 °F 100% 29.69 in 3.0 mi Calm Calm - 0.01 in Rain Light Rain
5:38 AM 50.0 °F 50.0 °F 100% 29.69 in 3.0 mi ENE 3.5 mph - 0.03 in Rain Light Rain
5:53 AM 50.0 °F 50.0 °F 100% 29.69 in 2.5 mi Calm Calm - 0.04 in Rain Light Rain
6:05 AM 50.0 °F 50.0 °F 100% 29.68 in 4.0 mi Calm Calm - 0.00 in Rain Light Rain
6:53 AM 50.0 °F 50.0 °F 100% 29.68 in 9.0 mi ENE 4.6 mph - 0.02 in Rain Light Rain
7:53 AM 50.0 °F 50.0 °F 100% 29.69 in 5.0 mi East 3.5 mph - 0.00 in Rain Light Rain
8:53 AM 51.1 °F 51.1 °F 100% 29.67 in 10.0 mi NNE 3.5 mph - 0.02 in Rain Light Rain
9:53 AM 52.0 °F 52.0 °F 100% 29.66 in 10.0 mi North 3.5 mph - N/A   Clear
10:53 AM 55.0 °F 54.0 °F 96% 29.65 in 10.0 mi North 4.6 mph - N/A   Overcast
11:53 AM 55.9 °F 53.1 °F 90% 29.65 in 10.0 mi NNW 3.5 mph - N/A   Overcast
12:53 PM 55.9 °F 53.1 °F 90% 29.66 in 10.0 mi NW 4.6 mph - 0.01 in Rain Light Rain
1:53 PM 54.0 °F 53.1 °F 97% 29.63 in 10.0 mi North 9.2 mph - 0.02 in Rain Light Rain
2:53 PM 54.0 °F 53.1 °F 97% 29.64 in 10.0 mi NW 4.6 mph - 0.00 in Rain Light Rain
3:53 PM 52.0 °F 52.0 °F 100% 29.65 in 10.0 mi NNW 4.6 mph - 0.01 in Rain Light Rain
4:19 PM 51.8 °F 51.8 °F 100% 29.64 in 8.0 mi NNW 5.8 mph - 0.02 in Rain Light Rain
4:30 PM 51.8 °F 51.8 °F 100% 29.63 in 10.0 mi NNW 9.2 mph - 0.02 in Rain Light Rain
4:53 PM 51.1 °F 51.1 °F 100% 29.65 in 10.0 mi NNW 6.9 mph - 0.03 in Rain Light Rain
5:29 PM 50.0 °F 50.0 °F 100% 29.64 in 10.0 mi NW 6.9 mph - 0.02 in Rain Light Rain
5:39 PM 50.0 °F 50.0 °F 100% 29.63 in 6.0 mi Calm Calm - 0.04 in Rain Light Rain
5:53 PM 50.0 °F 50.0 °F 100% 29.63 in 7.0 mi North 5.8 mph - 0.06 in Rain Light Rain
6:05 PM 50.0 °F 50.0 °F 100% 29.62 in 7.0 mi North 5.8 mph - 0.02 in Rain Light Rain
6:16 PM 50.0 °F 50.0 °F 100% 29.61 in 5.0 mi NNE 6.9 mph - 0.04 in Rain Rain
6:53 PM 50.0 °F 50.0 °F 100% 29.60 in 7.0 mi NNE 8.1 mph - 0.09 in Rain Light Rain
7:34 PM 50.0 °F 50.0 °F 100% 29.58 in 10.0 mi NNW 5.8 mph - 0.01 in   Overcast
7:53 PM 50.0 °F 50.0 °F 100% 29.59 in 10.0 mi NNW 9.2 mph - 0.01 in   Overcast
7:55 PM 50.0 °F 50.0 °F 100% 29.58 in 10.0 mi NW 10.4 mph - N/A   Overcast
8:19 PM 50.0 °F 50.0 °F 100% 29.55 in 10.0 mi North 10.4 mph - N/A   Overcast
8:23 PM 50.0 °F 50.0 °F 100% 29.55 in 10.0 mi NNW 12.7 mph - N/A   Overcast
8:41 PM 50.0 °F 50.0 °F 100% 29.56 in 10.0 mi NNW 9.2 mph - N/A   Overcast
8:53 PM 50.0 °F 50.0 °F 100% 29.56 in 10.0 mi North 8.1 mph - N/A   Overcast
9:53 PM 48.0 °F 48.0 °F 100% 29.55 in 10.0 mi NE 3.5 mph - N/A   Partly Cloudy
10:35 PM 48.2 °F 48.2 °F 100% 29.56 in 10.0 mi North 4.6 mph - N/A   Overcast
10:53 PM 48.9 °F 48.9 °F 100% 29.55 in 10.0 mi North 8.1 mph - N/A   Overcast
11:53 PM 48.9 °F 48.9 °F 100% 29.53 in 10.0 mi North 4.6 mph - N/A   Overcast